Weather History for Paris / Charles De Gaulle, France

Change the Weather History Date:

Wednesday, April 9, 2014

  Actual Average Record
Temperature  
Mean Temperature 50 °F -  
Max Temperature 60 °F 60 °F 73 °F (2011)
Min Temperature 40 °F 44 °F 28 °F (2003)
Degree Days  
Heating Degree Days 15    
Moisture  
Dew Point 38 °F    
Average Humidity 64    
Maximum Humidity 93    
Minimum Humidity 28    
Precipitation  
Precipitation 0.00 in - - ()
Sea Level Pressure  
Sea Level Pressure 30.33 in    
Wind  
Wind Speed 4 mph ()    
Max Wind Speed 7 mph    
Max Gust Speed -    
Visibility 7.0 miles    
Events Fog    
Averages and records for this station are not official NWS values.
T = Trace of Precipitation, MM = Missing Value Source: Averaged Metar Reports

Daily Weather History Graph

Daily Weather History Graph

Search for Another Location

Airport:

Trip Planner

Search our weather history database for the weather conditions in past years. The results will help you decide how hot, cold, wet, or windy it might be!

Date:

Astronomy

Apr. 09, 2014 Rise Set
Actual Time 7:11 AM CEST 8:32 PM CEST
Civil Twilight 6:38 AM CEST 9:05 PM CEST
Nautical Twilight 5:58 AM CEST 9:45 PM CEST
Astronomical Twilight 5:16 AM CEST 10:28 PM CEST
Moon 2:40 PM CEST (4/9) 4:19 AM CEST (4/9)
Length of Visible Light 14h 26m
Length of Day
13h 21m
Waxing Gibbous, 69% of the Moon is Illuminated
Apr 9
Waxing Gibbous
Apr 15
Full
Apr 22
Last Quarter
Apr 29
New
May 7
First Quarter

Hourly Weather History & Observations

Time (CEST) Temp. Windchill Dew Point Humidity Pressure Visibility Wind Dir Wind Speed Gust Speed Precip Events Conditions
12:00 AM 46 °F - 37 °F 60% 30.35 in 12 mi West 5.8 mph - -   Clear
12:00 AM 46.4 °F 43.5 °F 37.4 °F 71% 30.33 in - West 5.8 mph - N/A   Clear
12:30 AM 46.4 °F 43.5 °F 35.6 °F 66% 30.33 in - WSW 5.8 mph - N/A   Clear
1:00 AM 46 °F - 36 °F 59% 30.36 in 12 mi WNW 6.9 mph - -  
1:00 AM 46.4 °F 42.9 °F 37.4 °F 71% 30.33 in - WNW 6.9 mph - N/A   Clear
1:30 AM 42.8 °F - 35.6 °F 76% 30.33 in - NW 2.3 mph - N/A   Clear
2:00 AM 43 °F - 36 °F 69% 30.36 in 12 mi WNW 3.5 mph - -  
2:00 AM 42.8 °F - 35.6 °F 76% 30.33 in - WNW 2.3 mph - N/A   Clear
2:30 AM 42.8 °F 41.1 °F 37.4 °F 81% 30.33 in - WSW 3.5 mph - N/A   Clear
3:00 AM 42 °F - 37 °F 76% 30.36 in 12 mi West 4.6 mph - -  
3:00 AM 42.8 °F 40.1 °F 37.4 °F 81% 30.33 in - WSW 4.6 mph - N/A   Clear
3:30 AM 42.8 °F 41.1 °F 37.4 °F 81% 30.33 in - WSW 3.5 mph - N/A   Clear
3:37 AM 42.8 °F 40.1 °F 37.4 °F 81% 30.33 in - WSW 4.6 mph - N/A   Clear
4:00 AM 42 °F - 38 °F 79% 30.36 in 9 mi West 4.6 mph - -   Clear
4:00 AM 42.8 °F 40.1 °F 37.4 °F 81% 30.33 in - West 4.6 mph - N/A   Clear
4:30 AM 42.8 °F 41.1 °F 37.4 °F 81% 30.33 in 6.2 mi West 3.5 mph - N/A   Scattered Clouds
5:00 AM 42 °F - 38 °F 80% 30.36 in 9 mi West 4.6 mph - -   Scattered Clouds
5:00 AM 42.8 °F 40.1 °F 37.4 °F 81% 30.33 in 6.2 mi West 4.6 mph - N/A   Scattered Clouds
5:30 AM 41.0 °F 38.0 °F 37.4 °F 87% 30.33 in - West 4.6 mph - N/A   Clear
6:00 AM 41 °F - 37 °F 81% 30.35 in 9 mi West 3.5 mph - -   Clear
6:00 AM 41.0 °F 39.0 °F 37.4 °F 87% 30.33 in - West 3.5 mph - N/A   Clear
6:30 AM 41.0 °F 39.0 °F 37.4 °F 87% 30.33 in - West 3.5 mph - N/A   Clear
7:00 AM 41 °F - 38 °F 84% 30.36 in 4 mi West 3.5 mph - -   Scattered Clouds
7:00 AM 41.0 °F 39.0 °F 37.4 °F 87% 30.33 in 4.3 mi West 3.5 mph - N/A   Partly Cloudy
7:30 AM 41.0 °F - 39.2 °F 93% 30.33 in 3.1 mi Variable 2.3 mph - N/A   Mostly Cloudy
8:00 AM 41 °F - 39 °F 90% 30.36 in 1 mi West 3.5 mph - -   Mist
8:00 AM 41.0 °F 39.0 °F 39.2 °F 93% 30.33 in 1.2 mi West 3.5 mph - N/A   Mostly Cloudy
8:30 AM 41.0 °F 39.0 °F 39.2 °F 93% 30.33 in 0.3 mi WNW 3.5 mph - N/A   Mostly Cloudy
9:00 AM 41 °F - 39 °F 90% 30.38 in 0 mi WNW 3.5 mph - - Fog Patches of Fog
9:00 AM 41.0 °F 39.0 °F 39.2 °F 93% 30.36 in 0.2 mi Variable 3.5 mph - N/A   Mostly Cloudy
9:30 AM 41.0 °F 39.0 °F 39.2 °F 93% 30.36 in 0.3 mi Variable 3.5 mph - N/A   Mostly Cloudy
10:00 AM 42 °F - 40 °F 92% 30.39 in 1 mi West 3.5 mph - - Fog Light Fog
10:00 AM 42.8 °F 41.1 °F 41.0 °F 93% 30.36 in 1.2 mi Variable 3.5 mph - N/A   Mostly Cloudy
10:30 AM 42.8 °F - 41.0 °F 93% 30.36 in 1.9 mi Variable 2.3 mph - N/A   Mostly Cloudy
11:00 AM 46 °F - 43 °F 86% 30.39 in 4 mi West 2.3 mph - -   Partly Cloudy
11:00 AM 46.4 °F - 42.8 °F 87% 30.36 in 3.7 mi Variable 2.3 mph - N/A   Partly Cloudy
11:30 AM 48.2 °F - 42.8 °F 82% 30.36 in 6.2 mi Variable 2.3 mph - N/A   Scattered Clouds
12:00 PM 52 °F - 43 °F 63% 30.38 in 7 mi WSW 2.3 mph - -   Scattered Clouds
12:00 PM 51.8 °F - 42.8 °F 71% 30.36 in 6.2 mi Variable 2.3 mph - N/A   Partly Cloudy
12:30 PM 53.6 °F - 41.0 °F 62% 30.36 in 6.2 mi SSW 3.5 mph - N/A   Partly Cloudy
1:00 PM 55 °F - 37 °F 40% 30.37 in 9 mi SW 3.5 mph - -   Scattered Clouds
1:00 PM 55.4 °F - 39.2 °F 54% 30.36 in 6.2 mi Variable 3.5 mph - N/A   Partly Cloudy
1:30 PM 57.2 °F - 37.4 °F 48% 30.36 in 6.2 mi Variable 3.5 mph - N/A   Partly Cloudy
2:00 PM 57 °F - 37 °F 36% 30.36 in 9 mi WNW 4.6 mph - -   Partly Cloudy
2:00 PM 57.2 °F - 37.4 °F 48% 30.33 in 6.2 mi WNW 5.8 mph - N/A   Partly Cloudy
2:30 PM 57.2 °F - 35.6 °F 44% 30.33 in 6.2 mi SW 4.6 mph - N/A   Partly Cloudy
3:00 PM 58 °F - 37 °F 34% 30.34 in 12 mi North 5.8 mph - -   Scattered Clouds
3:00 PM 57.2 °F - 37.4 °F 48% 30.33 in 6.2 mi NNW 5.8 mph - N/A   Partly Cloudy
3:30 PM 59.0 °F - 35.6 °F 42% 30.30 in 6.2 mi Variable 5.8 mph - N/A   Partly Cloudy
4:00 PM 59 °F - 36 °F 31% 30.32 in 12 mi West 3.5 mph - -   Scattered Clouds
4:00 PM 59.0 °F - 35.6 °F 42% 30.30 in 6.2 mi Variable 3.5 mph - N/A   Partly Cloudy
4:30 PM 59.0 °F - 35.6 °F 42% 30.30 in 6.2 mi Variable 3.5 mph - N/A   Partly Cloudy
5:00 PM 60 °F - 36 °F 28% 30.30 in 12 mi SSE 2.3 mph - -   Scattered Clouds
5:00 PM 60.8 °F - 35.6 °F 39% 30.30 in 6.2 mi Variable 2.3 mph - N/A   Partly Cloudy
5:30 PM 59.0 °F - 37.4 °F 45% 30.27 in 6.2 mi Variable 3.5 mph - N/A   Partly Cloudy
6:00 PM 59 °F - 36 °F 31% 30.30 in 12 mi West 3.5 mph - -   Scattered Clouds
6:00 PM 59.0 °F - 35.6 °F 42% 30.27 in 6.2 mi Variable 3.5 mph - N/A   Partly Cloudy
6:30 PM 59.0 °F - 35.6 °F 42% 30.27 in - Variable 2.3 mph - N/A   Clear
7:00 PM 59 °F - 36 °F 29% 30.29 in 12 mi North 3.5 mph - -   Clear
7:00 PM 59.0 °F - 35.6 °F 42% 30.27 in - North 3.5 mph - N/A   Clear
7:30 PM 59.0 °F - 35.6 °F 42% 30.27 in - NW 3.5 mph - N/A   Clear
8:00 PM 58 °F - 36 °F 33% 30.28 in 12 mi NW 4.6 mph - -   Clear
8:00 PM 57.2 °F - 35.6 °F 44% 30.27 in - NNW 4.6 mph - N/A   Clear
8:30 PM 55.4 °F - 37.4 °F 51% 30.27 in - NW 5.8 mph - N/A   Clear
9:00 PM 55 °F - 37 °F 38% 30.29 in 16 mi NNW 4.6 mph - -   Clear
9:00 PM 55.4 °F - 37.4 °F 51% 30.27 in - NNW 4.6 mph - N/A   Clear
9:30 PM 53.6 °F - 37.4 °F 54% 30.27 in - North 5.8 mph - N/A   Clear
10:00 PM 53 °F - 38 °F 46% 30.29 in 16 mi NNE 5.8 mph - -  
10:00 PM 51.8 °F - 37.4 °F 58% 30.27 in - NNE 5.8 mph - N/A   Clear
10:30 PM 51.8 °F - 39.2 °F 62% 30.27 in - NE 4.6 mph - N/A   Clear
11:00 PM 51 °F - 38 °F 52% 30.29 in 16 mi NE 5.8 mph - -  
11:00 PM 51.8 °F - 39.2 °F 62% 30.27 in - NE 5.8 mph - N/A   Clear
11:30 PM 51.8 °F - 39.2 °F 62% 30.27 in - NE 4.6 mph - N/A   Clear